User: anonymous   Login
Location: Unspecified
(0.0000°N, 0.0000°E)
Time: 23:26:39
(UTC+00:00)
Language:

Aussat K3 - Orbit

View from above orbital plane
View from above orbital plane
View from above satellite
View from above satellite

Ground track
Ground track

The orbit data is extracted from the following two-line orbital elements,

1 18350U 87078A   16243.94632909 -.00000028 +00000-0 +00000-0 0  9996
2 18350 014.4729 021.1485 0006449 253.1695 084.4992 00.98905741010652
Epoch (UTC): 30 August 2016 22:42:42
Eccentricity: 0.0006449
inclination: 14.4729°
perigee height: 36146 km
apogee height: 36201 km
right ascension of ascending node: 21.1485°
argument of perigee: 253.1695°
revolutions per day: 0.98905741
mean anomaly at epoch: 84.4992°
orbit number at epoch: 1065

The dashed part of the orbit path shows where the satellite is in the earth's shadow,  

DLR